Location: ????????
(55.6189°N, 38.3031°E)
Time: 04:55:26
(UTC+00:00)

CZ-4B DEB - Pass Details

Date: 15 November 2019
Orbit: 840 x 862 km, 99.1° (Epoch: 07 December)

Event Time Altitude Azimuth Distance (km) Brightness Sun altitude
Rises 02:59:50 0° 17° (NNE) 3,411 7.5 -16.7°
Reaches altitude 10° 03:02:13 10° 18° (NNE) 2,473 6.7 -16.3°
Maximum altitude 03:07:43 82° 107° (ESE) 859 4.3 -15.6°
Drops below altitude 10° 03:13:11 10° 195° (SSW) 2,464 6.6 -14.8°
Sets 03:15:33 0° 196° (SSW) 3,397 7.3 -14.5°
